Location: Biltmore Gardens
(41.6070°N, 83.4666°W)
Time: 15:13:35
(UTC+00:00)

Cosmos 1140 Rocket - Pass Details

Date: 14 July 2020
Orbit: 744 x 768 km, 74.1° (Epoch: 13 August)

Event Time Altitude Azimuth Distance (km) Brightness Sun altitude
Exits shadow 07:32:18 50° 218° (SW) 959 3.6 -21.6°
Maximum altitude 07:33:37 76° 290° (WNW) 788 3.4 -21.5°
Drops below altitude 10° 07:38:52 10° 17° (NNE) 2,309 7.1 -21.1°
Sets 07:41:16 0° 19° (NNE) 3,241 8.2 -20.8°
